Weather History for Volk, WI

Change the Weather History Date:

Monday, October 8, 2012

  Actual Average Record
Temperature  
Mean Temperature 50 °F -  
Max Temperature 63 °F 59 °F 81 °F (2010)
Min Temperature 37 °F 42 °F 26 °F (1996)
Degree Days  
Heating Degree Days 16    
Moisture  
Dew Point 28 °F    
Average Humidity 42    
Maximum Humidity 52    
Minimum Humidity 32    
Precipitation  
Precipitation 0.00 in - - ()
Sea Level Pressure  
Sea Level Pressure 29.87 in    
Wind  
Wind Speed 13 mph (South)    
Max Wind Speed 22 mph    
Max Gust Speed 32 mph    
Visibility 10 miles    
Events      
Averages and records for this station are not official NWS values.
T = Trace of Precipitation, MM = Missing Value Source: NWS Daily Summary

Daily Weather History Graph

Daily Weather History Graph

Search for Another Location

Airport:

Trip Planner

Search our weather history database for the weather conditions in past years. The results will help you decide how hot, cold, wet, or windy it might be!

Date:

Astronomy

Oct. 08, 2012 Rise Set
Actual Time 7:07 AM CDT 6:28 PM CDT
Civil Twilight 6:38 AM CDT 6:57 PM CDT
Nautical Twilight 6:05 AM CDT 7:30 PM CDT
Astronomical Twilight 5:31 AM CDT 8:04 PM CDT
Moon No Moon Rise 2:30 PM CDT (10/8)
Length of Visible Light 12h 18m
Length of Day
11h 20m
Last Quarter, 46% of the Moon is Illuminated
Oct 8
Last Quarter
Oct 15
New
Oct 21
First Quarter
Oct 29
Full
Nov 6
Last Quarter

Hourly Weather History & Observations

Time (CDT) Temp. Windchill Dew Point Humidity Pressure Visibility Wind Dir Wind Speed Gust Speed Precip Events Conditions
12:55 AM 37.4 °F 29.8 °F 17.2 °F 44% 30.03 in 10.0 mi South 11.5 mph - N/A   Partly Cloudy
1:55 AM 38.7 °F 30.5 °F 17.6 °F 43% 30.01 in 10.0 mi South 13.8 mph - N/A   Clear
2:55 AM 38.8 °F 32.1 °F 17.8 °F 43% 29.99 in 10.0 mi South 10.4 mph - N/A   Clear
3:55 AM 38.5 °F 31.6 °F 18.7 °F 45% 29.98 in 10.0 mi South 10.4 mph 19.6 mph N/A   Clear
4:55 AM 38.5 °F 32.1 °F 20.1 °F 48% 29.97 in 10.0 mi South 9.2 mph - N/A   Clear
5:55 AM 38.3 °F 30.9 °F 21.2 °F 50% 29.96 in 10.0 mi South 11.5 mph - N/A   Clear
6:55 AM 38.7 °F 29.8 °F 22.1 °F 51% 29.96 in 10.0 mi South 16.1 mph 24.2 mph N/A   Overcast
7:55 AM 39.4 °F 30.7 °F 23.2 °F 52% 29.95 in 10.0 mi South 16.1 mph 25.3 mph N/A   Scattered Clouds
8:55 AM 43.3 °F 35.8 °F 25.9 °F 50% 29.94 in 10.0 mi South 16.1 mph - N/A   Partly Cloudy
9:55 AM 48.6 °F - 29.7 °F 48% 29.93 in 10.0 mi South 18.4 mph 25.3 mph N/A   Partly Cloudy
10:55 AM 52.2 °F - 32.4 °F 47% 29.91 in 10.0 mi South 13.8 mph 26.5 mph N/A   Partly Cloudy
11:55 AM 54.1 °F - 32.5 °F 44% 29.89 in 10.0 mi South 16.1 mph 24.2 mph N/A   Mostly Cloudy
12:55 PM 58.1 °F - 33.4 °F 39% 29.86 in 10.0 mi SSW 19.6 mph 29.9 mph N/A   Mostly Cloudy
1:55 PM 59.2 °F - 33.4 °F 38% 29.83 in 10.0 mi SSW 11.5 mph 24.2 mph N/A   Clear
2:55 PM 62.8 °F - 32.4 °F 32% 29.81 in 10.0 mi SW 21.9 mph 31.1 mph N/A   Scattered Clouds
3:55 PM 62.2 °F - 32.4 °F 33% 29.78 in 10.0 mi SSW 16.1 mph 32.2 mph N/A   Scattered Clouds
4:55 PM 61.0 °F - 32.5 °F 34% 29.77 in 10.0 mi SSW 11.5 mph 29.9 mph N/A   Mostly Cloudy
5:55 PM 60.4 °F - 32.5 °F 35% 29.76 in 10.0 mi South 13.8 mph 24.2 mph N/A   Partly Cloudy
6:55 PM 59.2 °F - 32.5 °F 37% 29.78 in 10.0 mi South 12.7 mph 23.0 mph N/A   Scattered Clouds
7:55 PM 57.4 °F - 32.4 °F 39% 29.78 in 10.0 mi South 10.4 mph 21.9 mph N/A   Mostly Cloudy
8:55 PM 57.0 °F - 32.0 °F 39% 29.78 in 10.0 mi South 15.0 mph 25.3 mph N/A   Clear
9:55 PM 56.5 °F - 31.8 °F 39% 29.78 in 10.0 mi South 11.5 mph 21.9 mph N/A   Clear
10:55 PM 55.9 °F - 31.6 °F 40% 29.78 in 10.0 mi SSW 12.7 mph 24.2 mph N/A   Scattered Clouds
11:55 PM 55.6 °F - 32.0 °F 41% 29.77 in 10.0 mi SSW 17.3 mph 23.0 mph N/A   Overcast